Weather History for Hot Springs, VA

Change the Weather History Date:

Wednesday, January 1, 2014

  Actual Average Record
Temperature  
Mean Temperature 30 °F -  
Max Temperature 42 °F 34 °F 53 °F (2007)
Min Temperature 19 °F 21 °F 6 °F (2002)
Degree Days  
Heating Degree Days 34    
Moisture  
Dew Point 18 °F    
Average Humidity 59    
Maximum Humidity 86    
Minimum Humidity 39    
Precipitation  
Precipitation 0.00 in - - ()
Sea Level Pressure  
Sea Level Pressure 30.20 in    
Wind  
Wind Speed 12 mph (SW)    
Max Wind Speed 18 mph    
Max Gust Speed 22 mph    
Visibility 10 miles    
Events      
Averages and records for this station are not official NWS values.
T = Trace of Precipitation, MM = Missing Value Source: NWS Daily Summary

Daily Weather History Graph

Daily Weather History Graph

Search for Another Location

Airport:

Trip Planner

Search our weather history database for the weather conditions in past years. The results will help you decide how hot, cold, wet, or windy it might be!

Date:

Astronomy

Jan. 01, 2014 Rise Set
Actual Time 7:35 AM EST 5:10 PM EST
Civil Twilight 7:05 AM EST 5:40 PM EST
Nautical Twilight 6:33 AM EST 6:13 PM EST
Astronomical Twilight 6:01 AM EST 6:45 PM EST
Moon 7:25 AM EST (1/1) 5:52 PM EST (1/1)
Length of Visible Light 10h 34m
Length of Day
9h 35m
New Moon, 0% of the Moon is Illuminated
Jan 1
New Moon
Jan 7
First Quarter
Jan 15
Full
Jan 24
Last Quarter
Jan 30
New

Hourly Weather History & Observations

Time (EST) Temp. Windchill Dew Point Humidity Pressure Visibility Wind Dir Wind Speed Gust Speed Precip Events Conditions
12:15 AM 19.4 °F 6.0 °F 15.8 °F 86% 30.22 in 10.0 mi West 13.8 mph - N/A   Clear
12:35 AM 19.4 °F 5.0 °F 15.8 °F 86% 30.22 in 10.0 mi WSW 16.1 mph 19.6 mph N/A   Clear
12:55 AM 21.2 °F 7.8 °F 15.8 °F 80% 30.22 in 10.0 mi West 15.0 mph - N/A   Clear
1:15 AM 21.2 °F 7.3 °F 15.8 °F 80% 30.21 in 10.0 mi West 16.1 mph - N/A   Clear
1:35 AM 21.2 °F 6.8 °F 15.8 °F 80% 30.22 in 10.0 mi West 17.3 mph - N/A   Clear
1:55 AM 21.2 °F 6.4 °F 15.8 °F 80% 30.22 in 10.0 mi West 18.4 mph 21.9 mph N/A   Clear
2:15 AM 23.0 °F 9.2 °F 15.8 °F 74% 30.23 in 10.0 mi West 17.3 mph - N/A   Clear
2:35 AM 23.0 °F 9.6 °F 15.8 °F 74% 30.23 in 10.0 mi West 16.1 mph 20.7 mph N/A   Clear
2:55 AM 23.0 °F 9.6 °F 15.8 °F 74% 30.24 in 10.0 mi West 16.1 mph - N/A   Clear
3:15 AM 23.0 °F 11.1 °F 15.8 °F 74% 30.24 in 10.0 mi West 12.7 mph - N/A   Clear
3:35 AM 23.0 °F 10.6 °F 14.0 °F 68% 30.23 in 10.0 mi West 13.8 mph - N/A   Clear
3:55 AM 26.6 °F 14.3 °F 14.0 °F 59% 30.24 in 10.0 mi West 16.1 mph - N/A   Clear
4:15 AM 26.6 °F 15.2 °F 14.0 °F 59% 30.24 in 10.0 mi West 13.8 mph - N/A   Clear
4:35 AM 26.6 °F 14.7 °F 14.0 °F 59% 30.24 in 10.0 mi West 15.0 mph - N/A   Clear
4:55 AM 26.6 °F 15.7 °F 15.8 °F 64% 30.25 in 10.0 mi West 12.7 mph - N/A   Clear
5:15 AM 26.6 °F 16.8 °F 15.8 °F 64% 30.25 in 10.0 mi West 10.4 mph - N/A   Clear
5:35 AM 26.6 °F 16.2 °F 15.8 °F 64% 30.26 in 10.0 mi West 11.5 mph - N/A   Clear
5:55 AM 26.6 °F 16.2 °F 15.8 °F 64% 30.26 in 10.0 mi West 11.5 mph - N/A   Clear
6:15 AM 28.4 °F 18.0 °F 15.8 °F 59% 30.27 in 10.0 mi West 12.7 mph - N/A   Clear
6:35 AM 28.4 °F 19.1 °F 15.8 °F 59% 30.27 in 10.0 mi West 10.4 mph - N/A   Clear
6:55 AM 28.4 °F 19.1 °F 15.8 °F 59% 30.27 in 10.0 mi West 10.4 mph - N/A   Clear
7:15 AM 28.4 °F 19.7 °F 15.8 °F 59% 30.27 in 10.0 mi West 9.2 mph - N/A   Clear
7:35 AM 28.4 °F 18.5 °F 17.6 °F 64% 30.27 in 10.0 mi WSW 11.5 mph - N/A   Clear
7:55 AM 30.2 °F 20.8 °F 17.6 °F 60% 30.27 in 10.0 mi WSW 11.5 mph - N/A   Clear
8:15 AM 30.2 °F 19.3 °F 17.6 °F 60% 30.28 in 10.0 mi WSW 15.0 mph - N/A   Clear
8:35 AM 30.2 °F 19.8 °F 17.6 °F 60% 30.28 in 10.0 mi WSW 13.8 mph - N/A   Clear
8:55 AM 33.8 °F 23.9 °F 19.4 °F 56% 30.29 in 10.0 mi WSW 15.0 mph - N/A   Clear
9:15 AM 33.8 °F 24.8 °F 21.2 °F 60% 30.29 in 10.0 mi WSW 12.7 mph - N/A   Clear
9:35 AM 33.8 °F 25.3 °F 21.2 °F 60% 30.29 in 10.0 mi WSW 11.5 mph - N/A   Clear
9:55 AM 35.6 °F 27.5 °F 21.2 °F 56% 30.30 in 10.0 mi West 11.5 mph - N/A   Clear
10:15 AM 35.6 °F 27.1 °F 21.2 °F 56% 30.30 in 10.0 mi WSW 12.7 mph - N/A   Clear
10:35 AM 37.4 °F 30.3 °F 23.0 °F 56% 30.30 in 10.0 mi WSW 10.4 mph - N/A   Clear
10:55 AM 39.2 °F 32.5 °F 21.2 °F 49% 30.30 in 10.0 mi SW 10.4 mph - N/A   Clear
11:15 AM 39.2 °F 33.0 °F 21.2 °F 49% 30.29 in 10.0 mi SW 9.2 mph - N/A   Clear
11:35 AM 39.2 °F 33.6 °F 21.2 °F 49% 30.27 in 10.0 mi SW 8.1 mph - N/A   Clear
11:55 AM 41.0 °F 35.2 °F 19.4 °F 42% 30.26 in 10.0 mi SW 9.2 mph - N/A   Clear
12:15 PM 42.8 °F 39.3 °F 19.4 °F 39% 30.24 in 10.0 mi SSW 5.8 mph - N/A   Clear
12:35 PM 42.8 °F 39.3 °F 19.4 °F 39% 30.23 in 10.0 mi South 5.8 mph - N/A   Clear
12:55 PM 41.0 °F 34.7 °F 17.6 °F 39% 30.22 in 10.0 mi South 10.4 mph - N/A   Clear
1:15 PM 41.0 °F 34.7 °F 17.6 °F 39% 30.20 in 10.0 mi SSE 10.4 mph 16.1 mph N/A   Clear
1:35 PM 39.2 °F 34.2 °F 19.4 °F 45% 30.20 in 10.0 mi SE 6.9 mph - N/A   Clear
1:55 PM 39.2 °F 34.2 °F 17.6 °F 42% 30.19 in 10.0 mi SSE 6.9 mph - N/A   Clear
2:15 PM 37.4 °F 32.8 °F 19.4 °F 48% 30.18 in 10.0 mi SE 5.8 mph 18.4 mph N/A   Clear
2:35 PM 37.4 °F 30.3 °F 19.4 °F 48% 30.17 in 10.0 mi SSE 10.4 mph 16.1 mph N/A   Clear
2:55 PM 37.4 °F 32.1 °F 19.4 °F 48% 30.17 in 10.0 mi SSE 6.9 mph - N/A   Clear
3:15 PM 37.4 °F 30.8 °F 19.4 °F 48% 30.17 in 10.0 mi SSE 9.2 mph - N/A   Clear
3:35 PM 37.4 °F 30.8 °F 21.2 °F 52% 30.16 in 10.0 mi South 9.2 mph - N/A   Clear
3:55 PM 37.4 °F 30.8 °F 19.4 °F 48% 30.16 in 10.0 mi SSE 9.2 mph - N/A   Clear
4:35 PM 35.6 °F 29.9 °F 17.6 °F 48% 30.15 in 10.0 mi SSE 6.9 mph - N/A   Clear
4:55 PM 33.8 °F 27.0 °F 17.6 °F 52% 30.15 in 10.0 mi South 8.1 mph - N/A   Clear
5:15 PM 33.8 °F 27.7 °F 17.6 °F 52% 30.14 in 10.0 mi South 6.9 mph - N/A   Clear
5:35 PM 32.0 °F 24.8 °F 19.4 °F 60% 30.14 in 10.0 mi South 8.1 mph - N/A   Clear
5:55 PM 30.2 °F 21.9 °F 19.4 °F 64% 30.14 in 10.0 mi South 9.2 mph - N/A   Clear
6:15 PM 30.2 °F 20.8 °F 19.4 °F 64% 30.13 in 10.0 mi South 11.5 mph - N/A   Clear
6:35 PM 30.2 °F 21.9 °F 19.4 °F 64% 30.13 in 10.0 mi South 9.2 mph - N/A   Clear
6:55 PM 30.2 °F 21.3 °F 17.6 °F 60% 30.13 in 10.0 mi South 10.4 mph - N/A   Clear
7:15 PM 30.2 °F 20.8 °F 17.6 °F 60% 30.13 in 10.0 mi South 11.5 mph - N/A   Clear
7:35 PM 30.2 °F 21.3 °F 17.6 °F 60% 30.12 in 10.0 mi SSW 10.4 mph - N/A   Clear
7:55 PM 30.2 °F 21.3 °F 19.4 °F 64% 30.12 in 10.0 mi South 10.4 mph - N/A   Clear
8:16 PM 30.2 °F 22.6 °F 19.4 °F 64% 30.12 in 10.0 mi SSW 8.1 mph - N/A   Clear
8:36 PM 32.0 °F 24.8 °F 17.6 °F 55% 30.11 in 10.0 mi SSW 8.1 mph - N/A   Clear
8:55 PM 32.0 °F 23.6 °F 17.6 °F 55% 30.10 in 10.0 mi SSW 10.4 mph - N/A   Clear
9:16 PM 32.0 °F 24.2 °F 17.6 °F 55% 30.09 in 10.0 mi SW 9.2 mph - N/A   Clear
9:35 PM 33.8 °F 27.0 °F 17.6 °F 52% 30.09 in 10.0 mi SW 8.1 mph - N/A   Clear
9:55 PM 33.8 °F 25.3 °F 17.6 °F 52% 30.09 in 10.0 mi WSW 11.5 mph - N/A   Clear
10:16 PM 33.8 °F 25.3 °F 17.6 °F 52% 30.07 in 10.0 mi SW 11.5 mph - N/A   Clear
10:35 PM 33.8 °F 25.3 °F 17.6 °F 52% 30.07 in 10.0 mi SW 11.5 mph - N/A   Clear
10:56 PM 32.0 °F 23.6 °F 19.4 °F 60% 30.06 in 10.0 mi WSW 10.4 mph - N/A   Clear
11:15 PM 32.0 °F 23.6 °F 19.4 °F 60% 30.06 in 10.0 mi WSW 10.4 mph - N/A   Clear
11:35 PM 30.2 °F 20.2 °F 19.4 °F 64% 30.05 in 10.0 mi WSW 12.7 mph - N/A   Clear
11:55 PM 30.2 °F 20.8 °F 19.4 °F 64% 30.04 in 10.0 mi WSW 11.5 mph - N/A   Clear